Date String (YYYY-MM-DD hh:mm:ss) UTC,Instrument flags,Ambient pressure (hPa),Sample flow (lpm),Bypass flow (lpm),Sample temperature (°C),Ambient temperature (°C),ASC tube jacket temperature (°C),LED temperature (°C),Box temperature (°C),Sample RH (%),Span deviation,Mass concentration (μg/m³),Mass concentration (μg/m³),Mass concentration (μg/m³)
DateTimeUTC,F1_M11,P_M11,Q1_M11,Q2_M11,T1_M11,T2_M11,T3_M11,T4_M11,T5_M11,U1_M11,ZSPAN_M11,X2_M11,X0_M11,X1_M11
2022-09-15 08:00:00,,0824.6,4.99,0.00,30.6,29.3,00.0,39.3,32.4,23.5,0000.0,0001.93,0003.96,0001.61
2022-09-15 08:01:00,,0824.4,5.01,0.00,30.6,29.3,00.0,39.4,32.4,23.2,0000.0,0001.98,0004.18,0001.62
2022-09-15 08:02:00,,0824.4,4.99,0.00,30.6,29.3,00.0,39.4,32.4,22.6,0000.0,0002.07,0004.45,0001.64
2022-09-15 08:03:00,,0824.5,5.00,0.00,30.7,29.3,00.0,39.4,32.5,22.5,0000.0,0002.16,0004.72,0001.66
2022-09-15 08:04:00,,0824.4,5.00,0.00,30.7,29.3,00.0,39.4,32.5,22.3,0000.0,0002.30,0005.41,0001.70
2022-09-15 08:05:00,,0824.4,5.00,0.00,30.7,29.3,00.0,39.4,32.5,22.3,0000.0,0002.39,0006.06,0001.72
2022-09-15 08:06:00,,0824.4,4.99,0.00,30.7,29.3,00.0,39.4,32.5,22.2,0000.0,0002.51,0006.44,0001.75
2022-09-15 08:07:00,,0824.4,5.01,0.00,30.7,29.4,00.0,39.4,32.5,22.0,0000.0,0002.66,0007.07,0001.77
2022-09-15 08:08:00,,0824.4,4.99,0.00,30.7,29.4,00.0,39.5,32.5,22.0,0000.0,0002.79,0007.48,0001.79
2022-09-15 08:09:00,,0824.5,5.01,0.00,30.7,29.4,00.0,39.5,32.5,22.3,0000.0,0002.93,0007.87,0001.82
2022-09-15 08:10:00,,0824.5,4.99,0.00,30.7,29.4,00.0,39.5,32.6,22.5,0000.0,0003.08,0008.62,0001.84
2022-09-15 08:11:00,,0824.4,5.00,0.00,30.8,29.4,00.0,39.5,32.5,22.6,0000.0,0003.16,0009.42,0001.86
2022-09-15 08:12:00,,0824.4,5.00,0.00,30.8,29.4,00.0,39.5,32.6,22.6,0000.0,0003.19,0009.67,0001.89
2022-09-15 08:13:00,,0824.4,4.99,0.00,30.8,29.4,00.0,39.5,32.6,22.5,0000.0,0003.20,0009.99,0001.89
2022-09-15 08:14:00,,0824.4,5.01,0.00,30.8,29.4,00.0,39.5,32.6,22.2,0000.0,0003.20,0010.23,0001.89
2022-09-15 08:15:00,,0824.5,5.00,0.00,30.8,29.4,00.0,39.5,32.6,21.9,0000.0,0003.17,0010.35,0001.87
2022-09-15 08:16:00,,0824.4,5.00,0.00,30.8,29.4,00.0,39.5,32.6,21.9,0000.0,0003.18,0010.65,0001.87
2022-09-15 08:17:00,,0824.4,5.00,0.00,30.8,29.4,00.0,39.6,32.6,22.0,0000.0,0003.24,0011.54,0001.87
2022-09-15 08:18:00,,0824.4,4.99,0.00,30.8,29.4,00.0,39.6,32.6,21.9,0000.0,0003.27,0012.06,0001.87
2022-09-15 08:19:00,,0824.4,5.01,0.00,30.8,29.4,00.0,39.6,32.6,22.0,0000.0,0003.29,0011.65,0001.87
2022-09-15 08:20:00,,0824.4,4.99,0.00,30.8,29.4,00.0,39.6,32.6,22.0,0000.0,0003.36,0012.01,0001.89
2022-09-15 08:21:00,,0824.4,5.01,0.00,30.8,29.4,00.0,39.6,32.6,22.1,0000.0,0003.43,0011.74,0001.90
2022-09-15 08:22:00,,0824.4,5.00,0.00,30.9,29.5,00.0,39.6,32.6,22.3,0000.0,0003.45,0011.19,0001.91
2022-09-15 08:23:00,,0824.5,4.99,0.00,30.9,29.5,00.0,39.6,32.6,22.4,0000.0,0003.49,0011.85,0001.93
2022-09-15 08:24:00,,0824.5,5.00,0.00,30.9,29.5,00.0,39.6,32.6,22.4,0000.0,0003.53,0011.71,0001.94
2022-09-15 08:25:00,,0824.5,4.99,0.00,30.9,29.5,00.0,39.6,32.6,22.4,0000.0,0003.55,0011.77,0001.95
2022-09-15 08:26:00,,0824.4,5.01,0.00,30.9,29.5,00.0,39.6,32.7,22.5,0000.0,0003.60,0012.43,0001.97
2022-09-15 08:27:00,,0824.5,4.99,0.00,30.9,29.5,00.0,39.6,32.7,22.6,0000.0,0003.62,0012.06,0001.97
2022-09-15 08:28:00,,0824.5,5.01,0.00,30.9,29.5,00.0,39.6,32.7,22.7,0000.0,0003.60,0012.03,0001.98
2022-09-15 08:29:00,,0824.5,5.00,0.00,30.9,29.5,00.0,39.7,32.7,22.6,0000.0,0003.55,0012.03,0001.98
2022-09-15 08:30:00,,0824.6,5.01,0.00,30.9,29.5,00.0,39.7,32.7,22.7,0000.0,0003.48,0011.56,0001.98
2022-09-15 08:31:00,,0824.5,5.00,0.00,30.9,29.5,00.0,39.7,32.7,22.7,0000.0,0003.43,0011.41,0001.97
2022-09-15 08:32:00,,0824.5,5.00,0.00,30.9,29.5,00.0,39.7,32.7,22.6,0000.0,0003.32,0011.36,0001.97
2022-09-15 08:33:00,,0824.6,5.00,0.00,30.9,29.5,00.0,39.7,32.7,22.5,0000.0,0003.31,0011.88,0001.97
2022-09-15 08:34:00,,0824.5,5.00,0.00,30.9,28.3,00.0,39.7,32.7,22.6,0000.0,0003.30,0012.65,0001.96
2022-09-15 08:35:00,,0824.6,5.00,0.00,30.9,27.1,00.0,39.6,32.6,22.6,0000.0,0003.28,0012.75,0001.97
2022-09-15 08:36:00,,0824.5,5.00,0.00,30.8,27.0,00.0,39.5,32.4,22.6,0000.0,0003.28,0012.64,0001.98
2022-09-15 08:37:00,,0824.5,5.01,0.00,30.7,27.3,00.0,39.5,32.2,22.8,0000.0,0003.25,0012.30,0001.99
2022-09-15 08:38:00,,0824.6,5.01,0.00,30.6,27.6,00.0,39.4,32.1,22.9,0000.0,0003.31,0012.52,0002.00
2022-09-15 08:39:00,,0824.4,5.01,0.00,30.5,27.9,00.0,39.4,32.1,23.0,0000.0,0003.31,0012.16,0002.01
2022-09-15 08:40:00,,0824.7,5.00,0.00,30.5,28.1,00.0,39.4,32.1,23.0,0000.0,0003.31,0011.17,0002.02
2022-09-15 08:41:00,,0824.4,4.99,0.00,30.5,28.3,00.0,39.3,32.1,23.0,0000.0,0003.33,0011.03,0002.02
2022-09-15 08:42:00,,0824.6,5.01,0.00,30.5,28.4,00.0,39.3,32.1,23.1,0000.0,0003.34,0011.09,0002.02
2022-09-15 08:43:00,,0824.6,5.00,0.00,30.5,28.6,00.0,39.3,32.2,23.1,0000.0,0003.37,0011.36,0002.02
2022-09-15 08:44:00,,0824.7,4.99,0.00,30.4,28.7,00.0,39.3,32.2,23.0,0000.0,0003.38,0011.15,0002.02
2022-09-15 08:45:00,,0824.5,5.01,0.00,30.4,28.7,00.0,39.3,32.2,23.0,0000.0,0003.36,0009.53,0002.02
2022-09-15 08:46:00,,0824.5,4.99,0.00,30.4,28.8,00.0,39.3,32.2,22.9,0000.0,0003.33,0008.88,0002.02
2022-09-15 08:47:00,,0824.6,5.01,0.00,30.4,28.8,00.0,39.3,32.2,22.8,0000.0,0003.36,0008.88,0002.01
2022-09-15 08:48:00,,0824.4,5.00,0.00,30.4,28.9,00.0,39.3,32.2,22.8,0000.0,0003.33,0008.36,0002.01
2022-09-15 08:49:00,,0824.6,4.99,0.00,30.5,28.9,00.0,39.3,32.2,22.8,0000.0,0003.25,0008.58,0002.00
2022-09-15 08:50:00,,0824.6,5.01,0.00,30.5,28.9,00.0,39.3,32.2,23.0,0000.0,0003.23,0009.31,0002.01
2022-09-15 08:51:00,,0824.4,4.99,0.00,30.5,29.0,00.0,39.3,32.2,23.1,0000.0,0003.19,0009.37,0001.99
2022-09-15 08:52:00,,0824.7,5.01,0.00,30.5,29.0,00.0,39.3,32.3,23.2,0000.0,0003.16,0009.70,0002.00
2022-09-15 08:53:00,,0824.5,4.99,0.00,30.5,29.0,00.0,39.3,32.3,23.3,0000.0,0003.12,0009.47,0002.01
2022-09-15 08:54:00,,0824.5,5.01,0.00,30.5,29.1,00.0,39.3,32.3,23.4,0000.0,0003.08,0008.79,0002.02
2022-09-15 08:55:00,,0824.6,5.00,0.00,30.5,29.1,00.0,39.3,32.3,23.4,0000.0,0003.00,0008.74,0002.02
2022-09-15 08:56:00,,0824.6,4.99,0.00,30.5,29.1,00.0,39.3,32.3,23.5,0000.0,0002.97,0008.71,0002.02
2022-09-15 08:57:00,,0824.7,4.99,0.00,30.5,29.1,00.0,39.3,32.3,23.6,0000.0,0002.94,0008.67,0002.02
2022-09-15 08:58:00,,0824.7,5.01,0.00,30.5,29.1,00.0,39.3,32.3,23.5,0000.0,0002.85,0008.78,0002.02
2022-09-15 08:59:00,,0824.6,4.99,0.00,30.5,29.1,00.0,39.3,32.3,23.5,0000.0,0002.84,0008.96,0002.03
